Tracking 19283 objects as of 17-Nov-2018
HD Live streaming from Space Station
objects crossing your sky now

LEMUR 1

Track LEMUR 1 now!
10-day predictions
LEMUR 1 is classified as:


NORAD ID: 40044
Int'l Code: 2014-033AL
Perigee: 612.9 km
Apogee: 697.9 km
Inclination: 97.8 °
Period: 97.7 minutes
Semi major axis: 7026 km
RCS: Unknown
Launch date: June 19, 2014
Source: United States (US)
Launch site: Orenburg, Russia (OREN)
aabbcc
Your satellite tracking list
Your tracking list is empty




NASA's NSSDC Master Catalog

Two Line Element Set (TLE):
1 40044U 14033AL  18321.20552056  .00000171  00000-0  32707-4 0  9995
2 40044  97.7838 192.3223 0060530  67.6393 293.1216 14.74025729237137
Source of the keplerian elements: AFSPC